GFSNIL_sfc_dewp_225.txt.gz
Dewpoint
50 49 51 49 48 47 47 47 47 46 45 45 46 45 46 46 46 45 44 41 36 32
52 51 51 49 49 48 48 48 47 45 44 45 44 45 44 44 42 41 37 34 32 31
53 52 49 49 49 48 49 48 46 44 44 43 43 43 42 39 37 34 33 32 29 29
53 52 49 48 49 48 49 47 45 43 42 42 40 40 38 35 33 30 29 28 28 28
53 52 51 50 50 49 48 47 44 43 42 41 40 38 36 32 29 27 26 26 26 25
53 52 51 50 51 49 48 46 43 41 39 38 37 35 33 28 26 25 25 24 24 25
52 52 51 51 50 48 47 44 42 40 38 36 33 30 26 25 24 23 23 25 26 25
53 52 51 50 50 48 46 44 42 39 35 31 28 24 24 22 22 22 24 27 26 28
52 51 50 48 46 45 43 41 39 36 33 30 25 34 33 26 23 23 23 26 29 32
51 50 49 47 45 44 42 41 39 36 34 30 27 36 35 33 24 25 26 27 27 25
49 48 46 45 43 42 40 39 37 36 34 33 32 37 36 33 28 29 29 29 29 31
44 46 44 43 42 40 39 38 37 36 36 36 36 38 35 32 31 32 32 32 31 30
41 43 43 42 41 39 38 37 36 36 36 37 36 37 35 33 32 32 32 32 31 33
38 38 38 38 38 37 36 36 35 36 36 36 37 37 37 37 34 32 31 31 31 31

GFSNIL_sfc_dewp_228.txt.gz
Dewpoint
53 51 51 50 50 51 50 48 47 46 45 45 45 45 46 47 47 47 46 45 41 38
53 51 50 49 49 51 51 49 48 46 45 45 45 45 45 45 46 46 44 42 38 34
53 52 52 49 48 49 50 51 48 46 44 45 44 45 45 43 42 41 38 36 32 30
53 53 52 50 49 49 50 50 48 46 44 44 44 43 41 40 37 37 33 31 30 29
54 53 52 51 50 50 50 50 48 45 44 43 43 41 39 36 35 32 30 28 28 26
53 53 52 50 51 49 49 48 46 44 43 42 42 41 39 36 33 31 29 27 25 25
53 52 52 52 51 50 49 48 45 44 42 41 40 39 35 32 29 27 26 26 24 24
53 53 52 51 51 50 49 48 47 45 43 40 37 35 32 29 27 25 25 27 26 28
47 52 51 50 50 48 47 46 45 43 40 37 35 38 37 30 25 24 24 24 26 30
45 48 50 48 47 47 46 44 43 41 39 37 32 38 37 34 24 23 24 27 30 29
43 44 49 47 46 45 43 42 41 38 36 35 34 39 37 34 24 26 27 27 27 30
41 42 45 45 44 43 42 40 39 38 37 36 36 38 36 30 28 28 28 30 30 30
40 41 43 43 42 41 41 39 38 37 36 36 35 38 36 30 28 29 31 31 32 33
38 39 40 40 39 39 37 37 36 36 37 37 35 35 35 33 29 31 32 32 33 33

GFSNIL_sfc_dewp_231.txt.gz
Dewpoint
52 52 51 52 51 51 50 50 50 50 47 45 45 46 47 49 48 48 47 44 41 42
53 52 51 51 52 52 51 51 50 49 47 45 45 45 46 47 47 47 47 45 41 39
53 53 52 51 51 52 52 51 50 48 46 45 45 44 45 46 46 46 45 43 39 34
53 53 52 52 50 51 52 51 50 49 47 45 45 44 44 44 45 44 41 38 38 34
54 53 53 52 51 50 51 52 50 49 48 45 44 44 43 42 42 41 39 36 33 30
51 53 53 52 52 51 51 51 51 50 47 45 44 43 42 41 40 39 37 33 31 27
46 49 53 52 52 52 51 50 51 49 47 45 44 43 42 40 38 37 34 33 30 26
45 46 51 52 51 51 51 50 49 47 46 44 42 41 39 36 35 33 30 29 26 26
43 44 45 51 50 50 49 48 47 46 45 43 43 43 41 36 31 28 27 25 26 30
42 42 43 47 49 49 48 47 46 46 44 43 42 42 41 38 28 27 26 25 27 26
41 41 41 44 46 47 46 45 44 43 42 41 40 43 41 36 29 27 26 26 26 30
40 40 40 42 45 44 44 44 43 41 41 40 39 42 41 34 29 28 28 29 31 30
40 39 39 40 43 42 42 41 40 39 38 38 38 41 39 33 30 29 29 29 30 33
38 38 38 39 40 40 38 37 36 37 38 38 38 40 38 35 29 29 29 30 30 32

GFSNIL_sfc_dewp_234.txt.gz
Dewpoint
52 50 50 50 51 52 51 52 52 52 52 51 51 50 50 48 47 46 46 45 42 42
53 52 51 51 52 52 52 52 51 51 50 50 49 49 49 49 48 46 46 45 43 42
53 53 53 52 52 52 52 52 51 51 50 48 47 47 47 48 48 47 47 45 42 40
49 53 53 53 52 53 52 52 51 50 49 48 46 45 46 47 47 47 46 44 42 39
47 48 53 52 52 52 52 52 51 50 49 48 47 45 44 45 46 46 45 43 42 39
45 46 47 51 53 52 52 52 51 50 49 47 46 45 44 44 45 45 45 43 42 39
43 44 45 47 52 52 51 52 51 50 49 48 45 45 44 43 42 43 43 41 41 37
39 43 43 45 49 52 51 51 51 50 49 47 45 44 43 42 41 40 38 38 37 35
35 41 42 42 44 50 50 50 50 49 49 45 46 46 45 41 38 36 33 29 27 30
34 37 41 41 43 48 48 47 47 47 46 46 45 46 45 43 35 33 31 28 29 26
33 37 40 40 41 45 47 46 46 45 45 45 44 45 44 41 32 31 29 29 28 28
33 36 38 39 39 43 44 44 44 44 43 43 42 45 43 38 32 29 28 27 28 30
33 36 37 38 38 41 42 42 41 40 42 42 41 44 42 38 35 33 32 31 32 35
33 35 36 37 38 38 38 37 37 37 39 40 41 43 43 39 35 33 32 32 33 33

GFSNIL_sfc_dewp_240.txt.gz
Dewpoint
49 54 52 52 52 53 53 53 52 53 55 56 56 57 56 55 55 54 54 53 52 50
47 48 50 53 52 53 53 53 52 53 53 53 54 55 55 54 53 53 53 53 53 51
43 45 46 48 53 52 53 53 53 53 52 52 52 53 54 54 53 53 52 52 52 51
37 41 44 46 47 53 53 53 53 53 52 52 52 52 53 53 53 52 52 51 51 50
32 35 39 43 45 46 48 53 53 52 52 52 52 52 52 51 52 51 51 50 50 49
30 31 33 38 42 44 45 49 53 53 52 51 51 51 51 51 51 52 51 50 50 49
28 30 30 34 38 42 43 45 51 53 52 51 51 50 50 50 50 51 50 50 49 48
26 29 30 32 36 41 42 44 47 52 52 52 51 50 49 49 49 49 49 49 49 49
23 27 29 30 35 38 41 42 45 49 51 51 50 49 48 48 48 49 48 48 48 49
23 25 29 29 33 35 40 41 43 46 49 49 49 48 48 47 47 46 47 46 46 45
23 22 28 30 31 35 39 40 41 44 46 47 48 47 48 47 46 45 45 44 43 42
23 22 27 30 30 35 36 39 40 42 43 45 46 46 47 46 44 42 41 41 42 41
22 22 27 30 32 36 35 38 39 40 42 43 44 46 46 45 42 39 37 37 37 40
21 22 27 31 33 34 37 37 36 37 39 41 42 44 46 44 41 39 38 36 35 35

GFSNIL_sfc_dewp_243.txt.gz
Dewpoint
47 49 52 53 52 54 54 54 55 55 56 57 58 58 57 57 56 56 55 54 53 52
41 45 46 48 51 53 54 54 54 53 54 55 56 57 57 56 56 55 55 54 54 53
36 39 42 46 47 50 53 53 53 53 53 53 53 54 55 56 55 55 54 54 53 53
34 35 37 42 44 46 47 50 53 53 53 53 52 52 52 54 55 54 53 53 53 53
30 33 34 35 39 43 44 46 48 53 53 52 52 52 52 52 52 53 53 53 52 52
28 29 32 33 35 38 42 44 45 48 53 52 52 52 52 52 52 52 53 52 52 51
30 27 29 32 33 37 39 43 44 45 48 52 52 52 52 52 51 51 51 52 52 52
30 30 28 32 33 34 37 42 42 44 46 51 52 52 51 51 51 51 51 51 52 51
26 27 27 30 31 32 36 39 41 42 44 47 51 50 49 50 50 49 49 50 50 51
23 27 26 25 30 31 33 37 40 41 43 45 47 49 49 49 49 49 48 49 49 49
22 26 24 24 30 31 33 35 37 39 41 42 44 47 48 48 48 48 48 48 48 48
21 25 24 24 28 31 33 35 36 38 39 41 42 45 46 47 47 46 46 45 45 45
21 25 24 24 28 32 33 33 34 36 39 40 41 43 45 46 46 43 43 43 43 44
22 23 22 23 30 33 33 33 36 37 38 39 40 41 43 45 44 42 40 39 39 41

GFSNIL_sfc_dewp_249.txt.gz
Dewpoint
44 48 49 50 53 55 55 55 56 57 58 58 57 57 57 56 56 56 56 55 54 53
40 41 46 47 48 49 52 54 55 56 56 57 58 58 57 57 56 56 55 55 54 53
36 39 40 42 44 45 46 48 52 54 55 55 56 57 56 56 56 56 56 55 55 54
34 35 35 37 38 43 45 46 46 48 51 54 54 55 55 56 54 55 55 55 55 54
32 33 32 33 35 37 41 44 46 46 47 49 53 53 53 54 55 55 54 54 54 54
30 31 32 32 33 34 35 41 44 44 45 46 48 52 52 52 53 54 54 54 53 53
27 28 29 32 32 33 35 37 41 42 43 44 46 48 52 52 52 52 53 53 53 53
22 24 26 31 31 31 34 35 38 40 41 42 44 47 47 51 52 51 51 51 52 52
20 21 23 27 29 29 32 34 35 37 38 40 40 43 45 46 48 51 51 50 51 51
20 21 22 24 27 27 28 33 35 36 35 36 38 41 43 44 45 47 50 50 50 50
21 21 21 22 24 27 27 30 34 33 34 34 35 39 41 43 43 45 47 49 50 50
22 21 21 22 22 26 26 30 32 33 33 33 34 38 40 41 42 43 45 47 48 49
23 22 21 22 22 26 25 31 32 32 32 33 33 37 41 41 42 41 42 45 46 46
23 23 22 22 24 25 26 27 30 32 32 34 34 37 40 41 42 42 42 43 43 44

GFSNIL_sfc_dewp_252.txt.gz
Dewpoint
36 38 42 49 55 55 55 56 57 57 57 57 58 58 58 58 58 57 57 55 54 53
35 36 37 41 49 51 54 55 56 56 56 57 57 57 57 57 57 57 56 56 56 55
33 34 36 37 39 46 50 51 54 55 55 55 56 56 55 55 55 56 55 55 54 54
31 34 34 34 35 38 46 48 48 50 52 54 54 55 55 56 55 54 54 54 53 53
31 32 33 34 35 36 39 45 45 46 48 49 53 53 53 54 54 54 54 54 55 54
30 31 31 32 35 34 37 41 42 43 45 46 48 51 52 52 53 54 53 53 54 53
29 30 31 32 34 33 34 35 39 40 41 43 45 47 49 52 52 53 53 53 52 53
24 27 30 31 32 33 32 34 36 37 38 40 43 43 45 47 51 51 51 52 53 53
23 22 24 27 30 31 31 31 36 35 35 36 38 42 43 45 45 47 51 50 51 51
23 23 23 22 23 26 29 30 33 34 34 34 35 38 41 42 43 44 46 49 50 50
22 24 23 22 22 23 26 27 30 33 33 34 34 36 39 41 42 43 44 46 48 50
21 22 23 23 22 23 24 26 29 31 32 32 32 35 37 41 41 41 42 44 46 48
21 22 24 23 23 23 25 25 26 28 32 32 32 34 37 40 41 40 41 42 44 45
21 23 25 23 24 24 25 25 25 27 31 32 34 34 37 39 40 41 41 41 41 44

GFSNIL_sfc_dewp_255.txt.gz
Dewpoint
33 33 35 36 38 43 54 56 57 58 58 58 59 59 59 58 58 57 57 56 56 55
32 33 33 35 37 39 42 54 56 57 56 57 57 57 57 58 58 58 57 57 57 56
32 32 33 34 35 36 38 44 55 55 56 56 56 57 57 56 57 56 57 56 55 55
31 32 32 34 34 35 37 40 48 55 55 55 55 56 55 55 55 55 55 56 55 55
31 32 31 32 34 34 34 37 43 48 54 54 55 55 55 55 55 55 53 54 54 54
30 31 31 31 33 33 33 35 38 41 47 49 52 53 54 54 54 53 53 53 53 52
29 30 31 31 32 32 33 33 35 37 40 45 47 48 51 52 53 54 53 53 53 52
27 31 31 31 31 31 32 33 33 36 37 40 42 43 45 47 51 52 52 53 53 52
22 27 30 30 30 31 30 32 32 34 34 36 37 41 43 43 45 47 51 51 51 51
20 21 25 29 29 29 29 31 31 33 33 34 35 38 41 42 42 43 45 48 50 50
19 20 22 26 27 27 29 30 30 31 32 33 33 36 38 41 41 42 43 44 46 49
18 19 21 24 25 24 24 27 29 30 31 32 33 35 37 40 41 41 41 42 44 45
18 20 21 23 25 24 24 24 25 26 29 32 32 35 36 39 40 40 40 41 42 44
19 20 21 23 25 24 24 24 24 25 27 31 33 34 34 37 39 41 41 41 41 42

GFSNIL_sfc_dewp_258.txt.gz
Dewpoint
32 32 32 33 34 36 37 40 43 53 56 58 58 58 58 58 58 58 57 56 56 54
31 32 32 32 34 35 36 38 40 46 56 57 58 58 58 58 57 57 57 57 56 55
30 32 32 33 32 34 34 35 38 43 55 56 57 58 57 57 57 57 57 57 56 55
28 30 32 32 32 33 34 34 36 40 44 55 55 56 57 56 56 56 56 57 56 56
28 29 31 31 32 33 33 34 35 37 42 53 54 55 56 55 56 56 56 56 55 55
26 28 29 31 32 32 32 33 33 36 37 41 53 54 55 54 55 55 55 55 55 55
25 27 29 31 32 32 32 32 33 34 34 37 43 54 54 54 54 54 54 54 54 54
21 27 28 29 31 32 31 32 32 33 33 35 39 45 53 53 53 53 53 53 53 53
18 22 24 28 29 31 30 31 32 32 32 34 35 41 45 50 51 52 52 52 52 53
17 19 21 24 28 29 29 30 30 30 32 33 33 39 43 44 45 47 49 51 51 51
17 18 19 21 24 28 29 28 29 29 30 32 34 38 42 43 42 43 44 45 47 49
18 18 19 20 22 26 28 27 28 29 29 31 33 37 40 41 41 41 41 42 43 45
19 19 19 20 22 24 26 27 27 28 29 32 33 36 38 39 40 40 40 41 42 43
19 19 20 21 23 25 26 26 25 25 28 32 33 34 35 38 38 40 41 41 40 42